Location: *
(47.2969°N, 10.2930°E)
Time: 09:14:34
(UTC+00:00)

COSMOS 2406 - Pass Details

Date: 09 April 2020
Orbit: 842 x 865 km, 71.0° (Epoch: 01 June)

Event Time Altitude Azimuth Distance (km) Brightness Sun altitude
Exits shadow 20:55:03 29° 217° (SW) 1,520 4.4 -26.0°
Maximum altitude 20:58:06 76° 298° (WNW) 879 3.3 -26.4°
Drops below altitude 10° 21:03:50 10° 25° (NNE) 2,492 5.9 -27.0°
Sets 21:06:19 0° 27° (NNE) 3,436 6.7 -27.3°
